Weather History for KI75 - July, 2013

Change the Weather History Date:

Tuesday, July 2, 2013

  Actual Average (KLWD) Record (KLWD)
Temperature  
Mean Temperature 66 °F 74 °F  
Max Temperature 81 °F 84 °F 96 °F (1970)
Min Temperature 53 °F 64 °F 51 °F (1968)
Degree Days  
Heating Degree Days 0 0  
Month to date heating degree days 0  
Since 1 June heating degree days 19  
Since 1 July heating degree days 0  
Cooling Degree Days 2 9  
Month to date cooling degree days 18  
Year to date cooling degree days 265  
Since 1 June cooling degree days 211  
Growing Degree Days 16 (Base 50)    
Moisture  
Dew Point 53 °F    
Average Humidity 67    
Maximum Humidity 87    
Minimum Humidity 37    
Precipitation  
Precipitation 0.00 in 0.16 in 1.46 in (1973)
Month to date precipitation 0.33  
Sea Level Pressure  
Sea Level Pressure 30.10 in    
Wind  
Wind Speed 6 mph (WNW)    
Max Wind Speed 16 mph    
Max Gust Speed 23 mph    
Visibility 10 miles    
Events Rain    
T = Trace of Precipitation, MM = Missing Value Source: NWS Daily Summary

Daily Weather History Graph

Daily Weather History Graph

Search for Another Location

Airport or City:

Trip Planner

Search our weather history database for the weather conditions in past years. The results will help you decide how hot, cold, wet, or windy it might be!

Date:

Astronomy

Jul. 02, 2013 Rise Set
Actual Time 5:46 AM CDT 8:50 PM CDT
Civil Twilight 5:13 AM CDT 9:24 PM CDT
Nautical Twilight 4:30 AM CDT 10:06 PM CDT
Astronomical Twilight 3:40 AM CDT 10:56 PM CDT
Moon 1:51 AM CDT 4:04 PM CDT
Length of Visible Light 16h 10m
Length of Day
15h 03m
Waning Crescent, 26% of the Moon is Illuminated
Jul 2
Waning Crescent
Jul 8
New
Jul 15
First Quarter
Jul 22
Full
Jul 29
Last Quarter

Hourly Weather History & Observations

Time (CDT) Temp. Dew Point Humidity Pressure Visibility Wind Dir Wind Speed Gust Speed Precip Events Conditions
12:15 AM 59.9 °F 51.3 °F 73% 30.13 in 10.0 mi North 4.6 mph - N/A   Clear
12:35 AM 59.9 °F 51.3 °F 73% 30.13 in 10.0 mi North 5.8 mph - N/A   Clear
12:55 AM 58.8 °F 51.1 °F 75% 30.13 in 10.0 mi NNW 4.6 mph - N/A   Clear
1:15 AM 59.2 °F 51.1 °F 74% 30.13 in 10.0 mi NNW 5.8 mph - N/A   Clear
1:35 AM 59.0 °F 51.1 °F 75% 30.13 in 10.0 mi NNW 5.8 mph - N/A   Clear
1:55 AM 58.3 °F 51.1 °F 77% 30.13 in 10.0 mi NNW 4.6 mph - N/A   Clear
2:15 AM 58.3 °F 50.9 °F 76% 30.12 in 10.0 mi NNW 5.8 mph - N/A   Clear
2:35 AM 58.3 °F 50.9 °F 76% 30.12 in 10.0 mi NNW 6.9 mph - N/A   Clear
2:55 AM 57.7 °F 50.9 °F 78% 30.12 in 10.0 mi NNW 5.8 mph - N/A   Clear
3:15 AM 56.8 °F 50.5 °F 79% 30.12 in 10.0 mi NW 4.6 mph - N/A   Clear
3:35 AM 57.0 °F 50.9 °F 80% 30.13 in 10.0 mi NNW 5.8 mph - N/A   Clear
3:55 AM 56.1 °F 50.5 °F 82% 30.13 in 10.0 mi NW 4.6 mph - N/A   Clear
4:15 AM 55.9 °F 50.2 °F 81% 30.12 in 10.0 mi NW 4.6 mph - N/A   Clear
4:35 AM 55.6 °F 50.2 °F 82% 30.13 in 10.0 mi NNW 4.6 mph - N/A   Clear
4:55 AM 56.7 °F 50.4 °F 79% 30.13 in 10.0 mi NW 5.8 mph - N/A   Clear
5:15 AM 54.7 °F 50.0 °F 84% 30.13 in 10.0 mi NW 3.5 mph - N/A   Clear
5:35 AM 54.5 °F 50.0 °F 85% 30.13 in 10.0 mi WNW 5.8 mph - N/A   Clear
5:55 AM 53.8 °F 50.0 °F 87% 30.13 in 10.0 mi WNW 4.6 mph - N/A   Clear
6:15 AM 54.5 °F 50.4 °F 86% 30.13 in 10.0 mi WNW 4.6 mph - N/A   Clear
6:35 AM 55.6 °F 51.1 °F 85% 30.14 in 10.0 mi WNW 3.5 mph - N/A   Clear
6:55 AM 57.2 °F 51.8 °F 82% 30.15 in 10.0 mi WNW 5.8 mph - N/A   Clear
7:15 AM 59.2 °F 53.2 °F 81% 30.15 in 10.0 mi WNW 4.6 mph - N/A   Clear
7:35 AM 61.3 °F 53.4 °F 75% 30.15 in 10.0 mi WNW 3.5 mph - N/A   Clear
7:55 AM 62.8 °F 54.1 °F 73% 30.14 in 10.0 mi WNW 4.6 mph - N/A   Clear
8:15 AM 64.6 °F 54.9 °F 71% 30.15 in 10.0 mi NW 8.1 mph - N/A   Clear
8:35 AM 66.2 °F 54.7 °F 66% 30.15 in 10.0 mi NNW 9.2 mph - N/A   Clear
8:55 AM 67.8 °F 54.9 °F 63% 30.16 in 10.0 mi NNW 8.1 mph - N/A   Clear
9:15 AM 69.3 °F 54.7 °F 60% 30.15 in 10.0 mi NW 4.6 mph - N/A   Clear
9:35 AM 71.1 °F 53.6 °F 54% 30.15 in 10.0 mi NW 5.8 mph - N/A   Clear
9:55 AM 72.7 °F 53.6 °F 51% 30.15 in 10.0 mi NW 5.8 mph - N/A   Clear
10:15 AM 73.6 °F 54.5 °F 51% 30.14 in 10.0 mi NNW 3.5 mph - N/A   Clear
10:35 AM 74.5 °F 53.2 °F 47% 30.14 in 10.0 mi NNW 4.6 mph - N/A   Clear
10:55 AM 75.4 °F 53.4 °F 46% 30.14 in 10.0 mi NW 8.1 mph - N/A   Clear
11:15 AM 76.1 °F 53.2 °F 45% 30.14 in 10.0 mi NW 6.9 mph - N/A   Clear
11:35 AM 77.0 °F 52.3 °F 42% 30.14 in 10.0 mi NW 5.8 mph - N/A   Clear
11:55 AM 77.9 °F 53.6 °F 43% 30.13 in 10.0 mi NW 8.1 mph - N/A   Clear
12:15 PM 77.9 °F 52.7 °F 41% 30.13 in 10.0 mi NNW 10.4 mph - N/A   Clear
12:35 PM 78.8 °F 52.5 °F 40% 30.13 in 10.0 mi North 8.1 mph - N/A   Clear
12:55 PM 79.0 °F 53.4 °F 41% 30.12 in 10.0 mi NW 9.2 mph - N/A   Clear
1:15 PM 79.9 °F 53.1 °F 39% 30.12 in 10.0 mi North 8.1 mph - N/A   Scattered Clouds
1:35 PM 78.6 °F 53.2 °F 41% 30.11 in 10.0 mi North 5.8 mph - N/A   Mostly Cloudy
1:55 PM 78.1 °F 53.1 °F 42% 30.10 in 10.0 mi NNW 6.9 mph - N/A   Mostly Cloudy
2:15 PM 80.6 °F 52.2 °F 37% 30.09 in 10.0 mi NNW 5.8 mph - N/A   Scattered Clouds
2:35 PM 78.4 °F 51.8 °F 39% 30.09 in 10.0 mi North 6.9 mph - N/A   Scattered Clouds
2:55 PM 80.8 °F 52.3 °F 37% 30.08 in 10.0 mi NNW 16.1 mph 19.6 mph N/A   Scattered Clouds
3:15 PM 70.5 °F 57.9 °F 64% 30.09 in 10.0 mi NNW 5.8 mph 9.2 mph N/A Rain Light Rain
3:35 PM 71.6 °F 58.6 °F 64% 30.08 in 10.0 mi West 3.5 mph - N/A   Scattered Clouds
3:55 PM 73.4 °F 57.9 °F 58% 30.07 in 10.0 mi Calm Calm - N/A   Scattered Clouds
4:15 PM 74.7 °F 58.5 °F 57% 30.06 in 10.0 mi Calm Calm - N/A   Scattered Clouds
4:35 PM 75.9 °F 58.3 °F 54% 30.05 in 10.0 mi Calm Calm - N/A   Clear
4:55 PM 75.4 °F 58.3 °F 55% 30.05 in 10.0 mi Calm Calm - N/A   Clear
5:15 PM 75.2 °F 57.9 °F 55% 30.05 in 10.0 mi South 3.5 mph - N/A   Clear
5:35 PM 77.0 °F 57.0 °F 50% 30.06 in 10.0 mi East 12.7 mph 17.3 mph N/A   Mostly Cloudy
5:55 PM 67.5 °F 52.2 °F 58% 30.07 in 10.0 mi East 11.5 mph 23.0 mph N/A   Overcast
6:15 PM 63.9 °F 54.1 °F 71% 30.06 in 10.0 mi ESE 10.4 mph - N/A Rain Light Rain
6:35 PM 63.9 °F 55.6 °F 74% 30.06 in 10.0 mi SSW 5.8 mph - N/A   Scattered Clouds
6:55 PM 65.3 °F 54.7 °F 68% 30.06 in 10.0 mi WSW 5.8 mph - N/A   Scattered Clouds
7:15 PM 64.8 °F 56.5 °F 74% 30.06 in 10.0 mi South 8.1 mph 16.1 mph N/A   Scattered Clouds
7:35 PM 62.2 °F 56.3 °F 81% 30.06 in 10.0 mi SSW 9.2 mph - N/A   Clear
7:55 PM 62.6 °F 55.6 °F 78% 30.06 in 10.0 mi South 4.6 mph - N/A   Scattered Clouds
8:15 PM 62.4 °F 55.6 °F 78% 30.06 in 10.0 mi SW 5.8 mph - N/A   Scattered Clouds
8:35 PM 62.6 °F 55.8 °F 78% 30.05 in 10.0 mi SSW 4.6 mph - N/A   Clear
8:55 PM 62.1 °F 55.6 °F 79% 30.05 in 10.0 mi SW 5.8 mph - N/A   Clear
9:15 PM 62.1 °F 55.6 °F 79% 30.05 in 10.0 mi WSW 4.6 mph - N/A   Clear
9:35 PM 61.7 °F 55.6 °F 80% 30.06 in 10.0 mi WSW 3.5 mph - N/A   Clear
9:55 PM 61.0 °F 55.6 °F 82% 30.06 in 10.0 mi WSW 5.8 mph - N/A   Clear
10:15 PM 60.6 °F 54.7 °F 81% 30.06 in 10.0 mi WSW 6.9 mph - N/A   Clear
10:35 PM 60.1 °F 53.6 °F 79% 30.06 in 10.0 mi WSW 6.9 mph - N/A   Clear
10:55 PM 59.5 °F 53.1 °F 79% 30.06 in 10.0 mi WSW 5.8 mph - N/A   Clear
11:15 PM 59.0 °F 52.9 °F 80% 30.06 in 10.0 mi WSW 5.8 mph - N/A   Clear
11:35 PM 59.0 °F 52.9 °F 80% 30.06 in 10.0 mi WSW 5.8 mph - N/A   Clear
11:55 PM 58.5 °F 52.9 °F 82% 30.06 in 10.0 mi WSW 6.9 mph - N/A   Clear